Terug naar catalogus

ARIANE 44LP+ R/B

ActiefGTO
NORAD 23127·ROCKET BODY·🇫🇷 France

Gelanceerd Jun 17, 1994 vanaf Guiana Space Centre

Loading…

TLE

VerouderendSource: Space-Track

Epoch: Sep 14, 2026, 11:44 UTC

1 23127U 94034D   26257.48927962  .00000057  00000-0  41213-3 0  9990
2 23127   7.3350 276.7957 7225765 196.5674 113.1189  2.26782703263653

Volg ARIANE 44LP+ R/B in realtime met AllMySat

Download on the App Store